Location: Meanaryar
(48.4161°N, 4.7315°W)
Time: 02:02:48
(UTC+00:00)

Cosmos 2084 Rocket - Pass Details

Date: 18 September 2020
Orbit: 545 x 636 km, 62.8° (Epoch: 31 October)

Event Time Altitude Azimuth Distance (km) Brightness Sun altitude
Rises 19:07:52 0° 316° (NW) 2,853 8.0 -8.0°
Reaches altitude 10° 19:10:07 10° 313° (NW) 1,961 7.1 -8.3°
Maximum altitude 19:14:31 66° 232° (SW) 678 3.9 -9.1°
Drops below altitude 10° 19:19:01 10° 151° (SSE) 1,996 5.8 -9.8°
Enters shadow 19:20:23 - 149° (SSE) 2,535 6.3 -10.0°
